DW4248 Weather Reports


Display with metric or nautical units.
time (UTC)temp
F
wind
direction
speed
MPH
gust
MPH
rain 1hr
in
rain 24hr
in
rain mn
in
humidity
%
barometer
mb
20260502190903 59 328 2.0 6.0 0.00 0.00 0.00 46 1019.5
20260502190004 59 324 2.0 6.0 0.00 0.00 0.00 46 1019.5
20260502185403 60 327 2.0 6.0 0.00 0.00 0.00 44 1019.5
20260502184503 60 318 1.0 4.0 0.00 0.00 0.00 51 1019.5
20260502183603 60 333 1.0 4.0 0.00 0.00 0.00 49 1019.5
20260502182703 59 330 2.0 8.0 0.00 0.00 0.00 51 1019.5
20260502181824 59 329 2.0 8.0 0.00 0.00 0.00 51 1019.5
20260502180903 58 325 2.0 5.0 0.00 0.00 0.00 49 1019.6
20260502163603 57 323 2.0 6.0 0.00 0.00 0.00 54 1019.8
20260502162703 57 324 2.0 7.0 0.00 0.00 0.00 56 1019.8
20260502161803 56 324 1.0 7.0 0.00 0.00 0.00 54 1019.8
20260502160903 56 313 1.0 4.0 0.00 0.00 0.00 60 1019.9
20260502151803 56 323 2.0 9.0 0.00 0.00 0.00 66 1019.5
20260502150903 56 325 2.0 5.0 0.00 0.00 0.00 68 1019.5
20260502123624 49 331 0.0 1.0 0.00 0.00 0.00 88 1018.5
20260502122703 48 0 0.0 0.0 0.00 0.00 0.00 89 1018.4
20260502121803 47 0 0.0 0.0 0.00 0.00 0.00 90 1018.3
20260502120903 47 0 0.0 0.0 0.00 0.00 0.00 90 1018.2
20260502115424 47 0 0.0 0.0 0.00 0.00 0.00 90 1017.9
20260502114503 46 0 0.0 0.0 0.00 0.00 0.00 90 1017.9
20260502113603 46 34 0.0 1.0 0.00 0.00 0.00 90 1017.7
20260502112703 46 0 0.0 0.0 0.00 0.00 0.00 90 1017.5
20260502111803 46 0 0.0 0.0 0.00 0.00 0.00 89 1017.4
20260502110903 46 0 0.0 0.0 0.00 0.00 0.00 89 1017.3
20260502110004 46 0 0.0 0.0 0.00 0.00 0.00 89 1017.3
20260502105403 46 0 0.0 0.0 0.00 0.00 0.00 88 1017.3
20260502104503 46 0 0.0 0.0 0.00 0.00 0.00 88 1017.3
20260502103603 46 0 0.0 0.0 0.00 0.00 0.00 87 1017.1
20260502102703 47 0 0.0 0.0 0.00 0.00 0.00 86 1017.1
20260502100903 47 0 0.0 0.0 0.00 0.00 0.00 84 1017.1
20260502090903 49 0 0.0 0.0 0.00 0.00 0.00 80 1016.8
20260502070903 52 322 0.0 1.0 0.00 0.00 0.00 70 1017.1
20260502070003 52 322 0.0 2.0 0.00 0.00 0.00 71 1017.0
20260502065403 52 311 0.0 1.0 0.00 0.00 0.00 73 1016.8
20260502064503 52 326 0.0 2.0 0.00 0.00 0.00 71 1016.8
20260502063603 52 152 0.0 3.0 0.00 0.00 0.00 69 1016.8
20260502062703 53 320 1.0 3.0 0.00 0.00 0.00 70 1017.0
20260502061824 54 325 1.0 9.0 0.00 0.00 0.00 66 1017.1
20260502060903 54 324 1.0 3.0 0.00 0.00 0.00 64 1017.3
20260502060003 53 342 0.0 1.0 0.00 0.00 0.00 65 1016.8
20260502055403 53 344 0.0 1.0 0.00 0.00 0.00 67 1016.8
20260502054503 54 0 0.0 0.0 0.00 0.00 0.00 66 1016.9
20260502053603 54 326 0.0 1.0 0.00 0.00 0.00 65 1016.8
20260502052703 54 320 0.0 1.0 0.00 0.00 0.00 65 1016.8
20260502051803 54 208 0.0 2.0 0.00 0.00 0.00 64 1016.7
20260502050903 54 326 0.0 3.0 0.00 0.00 0.00 65 1016.8
20260502050004 54 327 0.0 2.0 0.00 0.00 0.00 67 1016.9
20260502045424 53 327 0.0 2.0 0.00 0.00 0.00 70 1016.9
20260502044524 53 344 0.0 1.0 0.00 0.00 0.00 73 1016.9
20260502043603 53 0 0.0 0.0 0.00 0.00 0.00 72 1016.8
20260502042703 53 0 0.0 0.0 0.00 0.00 0.00 71 1016.8
20260502041803 54 0 0.0 0.0 0.00 0.00 0.00 69 1016.8
20260502040924 54 0 0.0 0.0 0.00 0.00 0.00 67 1016.8
20260502040003 54 0 0.0 0.0 0.00 0.00 0.00 66 1016.8
20260502035403 54 0 0.0 0.0 0.00 0.00 0.00 65 1016.9
20260502034503 55 0 0.0 0.0 0.00 0.00 0.00 63 1016.9
20260502033603 55 0 0.0 0.0 0.00 0.00 0.00 64 1016.9
20260502032703 55 0 0.0 0.0 0.00 0.00 0.00 63 1017.0
20260502031824 55 0 0.0 0.0 0.00 0.00 0.00 61 1017.0
20260502030903 55 344 0.0 1.0 0.00 0.00 0.00 61 1017.0
20260502030003 56 344 0.0 1.0 0.00 0.00 0.00 59 1017.1
20260502025425 56 0 0.0 0.0 0.00 0.00 0.00 59 1017.1
20260502024503 56 0 0.0 0.0 0.00 0.00 0.00 58 1017.0
20260502023603 56 344 0.0 1.0 0.00 0.01 0.00 56 1016.9
20260502022724 56 0 0.0 0.0 0.00 0.02 0.00 54 1016.9
20260502021804 56 348 0.0 1.0 0.00 0.02 0.00 58 1016.8
20260502020903 56 345 0.0 3.0 0.00 0.02 0.00 59 1016.6
20260502020003 56 6 0.0 3.0 0.00 0.02 0.00 60 1016.6
20260502015403 56 0 0.0 0.0 0.00 0.02 0.00 59 1016.5
20260502014503 56 0 0.0 0.0 0.00 0.02 0.00 57 1016.2
20260502013603 56 0 0.0 0.0 0.00 0.02 0.00 54 1016.1
20260502012703 57 0 0.0 0.0 0.00 0.02 0.00 53 1016.0
20260502011803 58 0 0.0 0.0 0.00 0.02 0.00 52 1015.9
20260502010903 59 0 0.0 0.0 0.00 0.02 0.00 48 1015.8
20260502010003 59 0 0.0 0.0 0.00 0.02 0.00 48 1015.7
20260502005403 60 0 0.0 0.0 0.00 0.02 0.00 45 1015.6
20260502004503 60 244 0.0 1.0 0.00 0.02 0.00 46 1015.5
20260502003603 60 327 0.0 2.0 0.00 0.02 0.00 41 1015.5
20260502002703 60 344 0.0 2.0 0.00 0.02 0.00 41 1015.6
20260502001803 61 336 0.0 4.0 0.00 0.02 0.00 41 1015.4
20260502000903 61 329 1.0 4.0 0.00 0.02 0.00 40 1015.5
20260502000003 61 202 0.0 2.0 0.00 0.02 0.00 38 1015.4
20260501235403 61 342 1.0 4.0 0.00 0.02 0.00 40 1015.3
20260501234503 62 338 1.0 4.0 0.00 0.02 0.00 38 1015.2
20260501233603 62 333 1.0 7.0 0.00 0.02 0.00 40 1015.1
20260501232703 62 337 2.0 8.0 0.00 0.02 0.00 37 1015.1
20260501231803 62 339 3.0 9.0 0.00 0.02 0.00 37 1015.0
20260501230903 62 336 2.0 9.0 0.00 0.02 0.00 37 1015.0
20260501230003 62 340 2.0 8.0 0.00 0.02 0.00 39 1015.1
20260501225403 62 340 2.0 8.0 0.00 0.02 0.00 37 1015.2
20260501224503 62 336 2.0 6.0 0.00 0.02 0.00 38 1015.4
20260501223624 62 339 3.0 13.0 0.00 0.02 0.00 42 1015.6
20260501222724 62 335 2.0 9.0 0.00 0.02 0.00 38 1015.6
20260501221803 62 328 1.0 4.0 0.00 0.02 0.00 39 1015.8
20260501220903 62 341 3.0 10.0 0.00 0.02 0.00 36 1015.8
20260501220003 62 333 2.0 8.0 0.00 0.02 0.00 36 1015.9
20260501215424 61 333 2.0 8.0 0.00 0.02 0.00 37 1016.0
20260501214503 61 334 2.0 9.0 0.00 0.02 0.00 36 1016.0
20260501213624 62 334 1.0 8.0 0.00 0.02 0.00 37 1016.0
20260501212703 62 329 3.0 11.0 0.00 0.02 0.00 36 1016.2
20260501211803 62 328 2.0 11.0 0.00 0.02 0.00 36 1016.4
20260501210903 63 44 1.0 6.0 0.00 0.02 0.00 37 1016.5
20260501210003 62 325 2.0 8.0 0.00 0.02 0.00 39 1016.6
20260501205403 62 325 2.0 5.0 0.00 0.02 0.00 41 1016.7
20260501204503 61 336 3.0 9.0 0.00 0.02 0.00 40 1017.0
20260501203624 62 329 2.0 8.0 0.00 0.02 0.00 39 1017.2
20260501202703 62 330 2.0 8.0 0.00 0.02 0.00 39 1017.3
20260501201803 62 313 0.0 2.0 0.00 0.02 0.00 39 1017.5
20260501200903 61 338 1.0 4.0 0.00 0.02 0.00 40 1017.6
20260501200024 61 329 1.0 3.0 0.00 0.02 0.00 41 1017.7
20260501195425 61 334 2.0 5.0 0.00 0.02 0.00 40 1017.8
20260501194503 61 327 1.0 5.0 0.00 0.02 0.00 43 1017.8
20260501193603 61 329 1.0 4.0 0.00 0.02 0.00 41 1017.9
20260501192703 62 327 2.0 8.0 0.00 0.02 0.00 39 1018.0
20260501191803 62 282 1.0 5.0 0.00 0.02 0.00 41 1018.0